Back to catalog

FENGYUN 1C DEB

AliveLEO
NORAD 36987·DEBRIS·🇨🇳 China

Launched May 10, 1999 from Taiyuan Satellite Launch Center

Loading…

Next Passes (next 24 hours)

TLE

FreshSource: Space-Track

Epoch: Sep 12, 2026, 13:31 UTC

1 36987U 99025EBT 26255.56337619  .00000617  00000-0  81659-3 0  9994
2 36987 100.7974 162.8372 0318469 117.1458 246.2521 13.46212957645614

Track FENGYUN 1C DEB in real time with AllMySat

Download on the App Store